STARLINK-1536, 46070

Orbit data source: Space-Track

STARLINK-1536, 46070 is a payload satellite owned by SpaceX/Seattle (US) in LEO that was launched on Fri, 07 Aug 2020 UTC via an FALCON 9 launch vehicle from the Air Force Eastern Test Range (AFETR). Payload-class satellites include a variety of spacecraft equipped with specific instruments for various scientific and technological missions. These include communications satellites like Starlink; space stations such as the ISS; scientific satellites like the Hubble; Earth observation satellites from companies like Planet Labs, Umbra, and HawkEye 360; GPS; miniature CubeSats for education and research; and military/defense satellites.

Loading next visibility...
Identifier
46070, 2020-055AV
Orbit
LEO
Country
Flag of USUS
Related business
Manufacturer
SpaceX/Seattle
Mission
Operational Commercial Communications
Bus & Motor
STARLINK, Unknown motor
Mass
260 kg wet, ~248 kg dry
Launch date (UTC)
2020-08-07 (5 years ago)
Launch vehicle
FALCON 9
Launch site
Air Force Eastern Test Range (AFETR)
Object type
Payload
Rocket body
Debris
Shape & HBR
Box + 1 Pan, 10.1 m
Radar Cross Section
13.562 m², Large (>1 m²)

Expand to show TLE details & history
Last TLE update: 5 hours ago

TLE from 5 hours ago
0 STARLINK-1536
1 46070U 20055AV  25312.20255537  .00004436  00000-0  31640-3 0  9995
2 46070  53.0553 281.9954 0001643  94.5899 265.5278 15.06415678291006
Epoch: 2025-11-08T04:51Z
TLE epoch observation values (Epoch: 2025-11-08T04:51:40.783Z)
Latitude
-0.00002°
Longitude
161.43991°
Altitude
548.132 km
Speed
7.589 km/s
True Right ascension
18h 47m 58s
True Declination
0° 00' 00"
Sunlit
Object was in daylight at epoch
Visualization orbit readout
Latitude
Unknown
Longitude
Unknown
Altitude
Unknown
Speed
Unknown
Apparent Right ascension
Unknown
Apparent Declination
Unknown
Sunlit
N/A
Visualization observer readout
Local Sidereal Time
06:17:41
Azimuth
Unknown
Elevation
Unknown
Doppler factor
Unknown
Orbital elements
Apogee altitude
548.572 km
Perigee altitude
546.296 km
Semi-major axis
6,925.571 km
Eccentricity
0.00016
Inclination
53.0553°
RAAN
281.9954°
Arg. of periapsis
94.5899°
True anomaly
265.50903°
Mean anomaly
265.5278°
Eccentric anomaly
265.51842°
Mean motion
3.76582 °/min
Orbital period
95.6 mins
BSTAR
0.0003164
Loading maneuver chart data...
Computing Atmospheric mass density...

Documentation

Showing up to 5 results
|